Weather in Utorda

India     15°19′50″N   73°54′02″E
temp.,
°C
wind,
m/s
gust,
m/s
humid.,
%
clouds,
%
prec.,
mm/h
press.,
hPa
HPBL,
m
26 february, fri
fri2623:30+24n12890 0.0 101177
02:30+22ne11905 0.0 101063
05:30+21ese11913 0.0 100944
08:30+26ese11670 0.0 1012184
11:30+34wsw323510 0.0 1012882
14:30+32wnw55420 0.0 1008606
17:30+30nw57480 0.0 1007604
20:30+25nw25650 0.0 1009194
27 february, sat
sat2723:30+24nnw25600 0.0 1010130
02:30+22nne12630 0.0 100866
05:30+20ene11630 0.0 100853
08:30+26nne11430 0.0 1010150
11:30+35wnw33230 0.0 1011794
14:30+33wnw78400 0.0 1007524
17:30+30nw58520 0.0 1006618
20:30+25nw36700 0.0 1009213
28 february, sun
sun2823:30+23nnw23750 0.0 1009107
02:30+21nne12790 0.0 100755
05:30+20nne11770 0.0 100659
08:30+26se11450 0.0 1009134
11:30+35wsw43240 0.0 1010829
14:30+33wsw56340 0.0 1006527
17:30+31w33470 0.0 1005539
20:30+24nnw11780 0.0 100842
1 march, mon
mon123:30+24ese12770 0.0 100939
02:30+23ese12740 0.0 100836
05:30+22ese11710 0.0 100849
08:30+27sse23500 0.0 1011201
11:30+34ssw44400 0.0 10111023
14:30+32ssw67540 0.0 1008640
17:30+30sw45590 0.0 1007559
20:30+25nw11840 0.0 101081
2 march, tue
tue223:30+23e11900 0.0 101132
02:30+23ese11910 0.0 101038
05:30+22ese12900 0.0 101053
08:30+27sse01660 0.0 1012226
11:30+34wsw22410 0.0 10121082
14:30+32sw66540 0.0 1009661
17:30+30wsw44620 0.0 1008621
20:30+25w11840 0.0 101185